Arcata, CA (95518)

11:36 PM PDT on July 24, 2016 (GMT -0700)
Woodland Heights | | Change Station

Elev 194 ft 40.89 °N, 124.07 °W | Updated 12 minutes ago

Overcast
Overcast
57.4 °F
Feels Like 57.4 °F
N
0.0
Wind Variable Wind from SSW
Gusts 0.0 mph

Today
High -- | Low -- °F
--% Chance of Precip.
Yesterday
High -- | Low -- °F
Precip. -- in
Pressure 30.05 in
Visibility 10.0 miles
Clouds Overcast 800 ft
Dew Point 55 °F
Humidity 92%
Rainfall 0.00 in
Snow Depth Not available.
6:05 AM 8:39 PM
Waning Gibbous, 69% visible
METAR KACV 250553Z AUTO 27003KT 10SM OVC008 15/13 A3003 RMK AO2 SLP174 T01500128 10172 20150 53003
Pressure 30.05 in
Visibility 10.0 miles
Clouds Overcast 800 ft
Dew Point 55 °F
Humidity 92%
Rainfall 0.00 in
Snow Depth Not available.
6:05 AM 8:39 PM
Waning Gibbous, 69% visible
METAR KACV 250553Z AUTO 27003KT 10SM OVC008 15/13 A3003 RMK AO2 SLP174 T01500128 10172 20150 53003

10-Day Weather Forecast

Almanac

Astronomy

Jul. 24, 2016 Rise Set
Actual Time
Civil Twilight
Nautical Twilight
Astronomical Twilight
Moon
Length of Visible Light
Length of Day
Tomorrow will be .
, % of the Moon is Illuminated

Today's Extremes

State Highs State Lows

Community

WunderPhotos

Upload Photos

1,927,275 photos uploaded!

WunderBlog® & News

Nearby

Air Quality

  Air Quality AQ Index Pollutant
Not available.

Snow Depth

Station Depth Elevation

Earthquake Activity

City Distance Mag. Time & Date
Minimum magnitude displayed is 2.5.

Coastal Water Temperatures

Place Temperature

Stations

Nearby Weather Stations

Station Location Temp. Windchill Dew Point Humidity Wind Precip. Elev Updated Type
                   

Watches & Warnings

There are currently no watches in effect.